Location: Asheville, NC
(35.6000°N, 82.5500°W)
Time: 14:55:18
(UTC-05:00)

JUGNU - Pass Details

Date: 09 January 2018
Orbit: 837 x 864 km, 20.0° (Epoch: 16 January)

Event Time Altitude Azimuth Distance (km) Brightness Sun altitude
Rises 18:26:11 0° 242° (WSW) 3,412 ? -10.4°
Reaches altitude 10° 18:29:44 10° 222° (SW) 2,479 ? -11.1°
Maximum altitude 18:33:17 16° 185° (S) 2,072 ? -11.8°
Drops below altitude 10° 18:36:50 10° 148° (SSE) 2,483 ? -12.5°
Sets 18:40:23 0° 128° (SE) 3,420 ? -13.1°
